Airfield :
LOGIN :

Register | Disclaimer

   EN    FR    IT 

 










Legend :    VFR   Marginal VFR   IFR   Intensive IFR   Very Intensive IFR
Visi :
Ceiling :
>= 8 km
>= 3000ft
5 to 8 km
1000 to 3000 ft
1500m to 5 km
500 to 1000 ft
800 to 1500m
200 to 500 ft
< 800m
< 200 ft
Symbols :   Thunderstorms  Fog  Heavy snow  Heavy precipitations  Wind > 20 kt
SIGMETs :     Misc.  Thunderstorms  Icing  Turbulence  Mountain Waves  Volcanic Ashes







- Airport Elevation : 580 ft
- Download approach charts


LFOA - Avord

CURRENT METAR :
  • 201500Z AUTO 01004KT 340V060 CAVOK 22/09 Q1025

EXPIRED METARs :
  • 201430Z AUTO 36007KT 300V030 CAVOK 22/08 Q1025
  • 201400Z AUTO VRB04KT CAVOK 23/09 Q1026
  • 201330Z AUTO VRB04KT CAVOK 21/10 Q1026
  • 201300Z AUTO 29004KT 200V340 CAVOK 22/09 Q1026
  • 201230Z AUTO 35004KT 300V040 CAVOK 21/09 Q1026

Expired Forecast.
No reported NOTAMs for that airfield.



MET'MAP, your aeronautical weather chart ! - Copyright ORBIFLY December 2007 - Disclaimer

ORBIFLY MET'MAP TEAM :

Programming & Development : Alexandra Zaïnal
Concept & Development : Baudouin d'Aumeries
Co-Development & Prog : Marc-Olivier Méhu
Technical & hardware support : Manuel Goepfert

Contact : metmap@orbifly.com




SOURCES & CREDITS :

   NOAA